Location: Unspecified
(0.0000°N, 0.0000°E)
Time: 05:33:11
(UTC+02:00)

BREEZE-M DEB (TANK) - Visible Passes

Search period start: 20 June 2018 00:00
Search period end: 30 June 2018 00:00
Orbit: 329 x 16305 km, 49.5° (Epoch: 19 June)

Date Brightness Start Highest point End Pass type
(mag) Time Alt. Az. Time Alt. Az. Time Alt. Az.
20 Jun 7.6 23:40:49 10° NW 00:58:35 22° WSW 01:12:41 17° SW visible
21 Jun 7.4 17:30:41 10° NNW 20:16:34 66° ENE 20:55:01 10° SE visible
22 Jun 7.2 18:17:28 10° NNW 21:01:50 81° ENE 21:32:51 18° SE visible
23 Jun 7.0 19:05:05 10° NNW 21:44:54 83° WSW 22:10:42 24° SSE visible
24 Jun 7.0 19:54:27 10° NW 22:25:55 66° WSW 22:48:32 26° S visible
25 Jun 7.1 20:47:03 10° NW 23:05:14 49° WSW 23:26:20 24° S visible
26 Jun 7.3 21:46:06 10° NW 23:43:29 34° WSW 00:04:09 19° SSW visible
27 Jun 7.5 23:01:15 10° WNW 00:21:43 20° WSW 00:41:57 12° SSW visible
29 Jun 7.3 17:40:41 10° NNW 20:24:44 84° ENE 21:00:36 10° SE visible
